IW0HP-13 Weather Reports


time (UTC)temp
C
wind
direction
speed
KPH
gust
KPH
rain 1hr
cm
rain 24hr
cm
rain mn
cm
humidity
%
barometer
mb
20260504031248 15 0.0 0.0 0.00 0.00 0.00 58 1020.0
20260504025248 15 0.0 0.0 0.00 0.00 0.00 58 1019.9
20260504023248 15 0.0 0.0 0.00 0.00 0.00 58 1019.8
20260504021248 16 0.0 0.0 0.00 0.00 0.00 57 1019.9
20260504015247 16 0.0 0.0 0.00 0.00 0.00 57 1019.9
20260504013247 16 0.0 0.0 0.00 0.00 0.00 57 1019.8
20260504011247 16 0.0 0.0 0.00 0.00 0.00 57 1020.0
20260504005247 16 0.0 0.0 0.00 0.00 0.00 57 1019.9
20260504003246 16 0.0 0.0 0.00 0.00 0.00 56 1019.9
20260504001246 17 0.0 0.0 0.00 0.00 0.00 56 1019.9
20260503235246 17 0.0 0.0 0.00 0.00 0.00 56 1020.1
20260503233246 17 0.0 0.0 0.00 0.00 0.00 56 1020.4
20260503231245 17 0.0 0.0 0.00 0.00 0.00 56 1020.5
20260503225245 17 0.0 0.0 0.00 0.00 0.00 55 1020.5
20260503223245 18 0.0 0.0 0.00 0.00 0.00 55 1020.7
20260503221245 18 0.0 0.0 0.00 0.00 0.00 54 1020.8
20260503215244 18 0.0 0.0 0.00 0.00 0.00 54 1020.6
20260503213244 18 0.0 0.0 0.00 0.00 0.00 53 1020.5
20260503211244 18 0.0 0.0 0.00 0.00 0.00 53 1020.4
20260503205244 18 0.0 0.0 0.00 0.00 0.00 53 1020.3
20260503203243 18 0.0 0.0 0.00 0.00 0.00 52 1020.4
20260503201243 18 0.0 0.0 0.00 0.00 0.00 52 1020.3
20260503195243 19 0.0 0.0 0.00 0.00 0.00 52 1020.1
20260503193243 19 0.0 0.0 0.00 0.00 0.00 51 1020.0
20260503191242 19 0.0 0.0 0.00 0.00 0.00 51 1019.8
20260503185242 19 0.0 0.0 0.00 0.00 0.00 50 1019.6
20260503183242 20 0.0 0.0 0.00 0.00 0.00 47 1019.3
20260503181241 20 0.0 0.0 0.00 0.00 0.00 43 1019.1
20260503175241 22 0.0 0.0 0.00 0.00 0.00 39 1018.9
20260503173241 25 0.0 0.0 0.00 0.00 0.00 33 1018.5
20260503171241 28 0.0 0.0 0.00 0.00 0.00 28 1018.1
20260503131238 22 0.0 0.0 0.00 0.00 0.00 34 1020.0
20260503081234 18 0.0 0.0 0.00 0.00 0.00 46 1021.7
20260503071233 17 0.0 0.0 0.00 0.00 0.00 45 1022.2
20260503053232 15 0.0 0.0 0.00 0.00 0.00 48 1022.1
20260503051231 14 0.0 0.0 0.00 0.00 0.00 49 1022.1
20260503045231 14 0.0 0.0 0.00 0.00 0.00 49 1021.9
20260503043231 14 0.0 0.0 0.00 0.00 0.00 49 1022.0
20260503041231 14 0.0 0.0 0.00 0.00 0.00 49 1021.9
20260503035231 14 0.0 0.0 0.00 0.00 0.00 48 1021.7
20260503033230 14 0.0 0.0 0.00 0.00 0.00 48 1021.8